Time,TemperatureF,DewpointF,PressureIn,WindDirection,WindDirectionDegrees,WindSpeedMPH,WindSpeedGustMPH,Humidity,HourlyPrecipIn,Conditions,Clouds,dailyrainin,SoftwareType,DateUTC
2013-10-08 00:04:00,56.3,52.5,30.05,ENE,65,0.0,0.0,87,0.00,,,0.00,meteohub,2013-10-08 05:04:00,
2013-10-08 00:09:00,56.1,52.3,30.05,ENE,65,0.0,0.0,87,0.00,,,0.00,meteohub,2013-10-08 05:09:00,
2013-10-08 00:14:00,55.9,52.2,30.05,ENE,65,0.0,0.0,87,0.00,,,0.00,meteohub,2013-10-08 05:14:00,
2013-10-08 00:20:00,55.9,52.2,30.05,ENE,65,0.0,0.0,87,0.00,,,0.00,meteohub,2013-10-08 05:20:00,
2013-10-08 00:25:00,56.1,52.3,30.05,ENE,65,0.0,0.0,87,0.00,,,0.00,meteohub,2013-10-08 05:25:00,
2013-10-08 00:30:00,55.9,51.8,30.05,ENE,65,0.0,0.0,86,0.00,,,0.00,meteohub,2013-10-08 05:30:00,
2013-10-08 00:36:00,55.8,52.0,30.05,ENE,65,0.0,0.0,87,0.00,,,0.00,meteohub,2013-10-08 05:36:00,
2013-10-08 00:41:00,55.6,51.8,30.05,ENE,65,0.0,0.0,87,0.00,,,0.00,meteohub,2013-10-08 05:41:00,
2013-10-08 00:46:00,55.6,51.4,30.05,ENE,65,0.0,0.0,86,0.00,,,0.00,meteohub,2013-10-08 05:46:00,
2013-10-08 00:52:00,55.2,51.4,30.05,ENE,65,0.0,0.0,87,0.00,,,0.00,meteohub,2013-10-08 05:52:00,
2013-10-08 00:57:00,54.9,51.4,30.05,ENE,65,0.0,0.0,88,0.00,,,0.00,meteohub,2013-10-08 05:57:00,
2013-10-08 01:02:00,54.7,51.3,30.05,ENE,65,0.0,0.0,88,0.00,,,0.00,meteohub,2013-10-08 06:02:00,
2013-10-08 01:07:00,54.5,51.3,30.05,ENE,65,0.0,0.0,89,0.00,,,0.00,meteohub,2013-10-08 06:07:00,
2013-10-08 01:12:00,54.5,51.3,30.05,ENE,65,0.0,0.0,89,0.00,,,0.00,meteohub,2013-10-08 06:12:00,
2013-10-08 01:17:00,54.3,51.1,30.05,ENE,65,0.0,0.0,89,0.00,,,0.00,meteohub,2013-10-08 06:17:00,
2013-10-08 01:22:00,54.3,51.1,30.05,ENE,65,0.0,0.0,89,0.00,,,0.00,meteohub,2013-10-08 06:22:00,
2013-10-08 01:27:00,54.3,51.1,30.05,ENE,65,0.0,0.0,89,0.00,,,0.00,meteohub,2013-10-08 06:27:00,
2013-10-08 01:32:00,54.7,51.3,30.05,ENE,65,0.0,0.0,88,0.00,,,0.00,meteohub,2013-10-08 06:32:00,
2013-10-08 01:37:00,54.9,51.1,30.05,ENE,65,0.0,0.0,87,0.00,,,0.00,meteohub,2013-10-08 06:37:00,
2013-10-08 01:42:00,54.9,50.7,30.05,ENE,65,0.0,0.0,86,0.00,,,0.00,meteohub,2013-10-08 06:42:00,
2013-10-08 01:47:00,54.7,50.5,30.05,ENE,65,0.0,0.0,86,0.00,,,0.00,meteohub,2013-10-08 06:47:00,
2013-10-08 01:52:00,54.7,50.2,30.05,ENE,65,0.0,0.0,85,0.00,,,0.00,meteohub,2013-10-08 06:52:00,
2013-10-08 01:58:00,54.7,50.2,30.05,ENE,65,0.0,0.0,85,0.00,,,0.00,meteohub,2013-10-08 06:58:00,
2013-10-08 02:03:00,54.3,50.2,30.05,ENE,65,0.0,0.0,86,0.00,,,0.00,meteohub,2013-10-08 07:03:00,
2013-10-08 02:08:00,54.1,50.4,30.05,ENE,65,0.0,0.0,87,0.00,,,0.00,meteohub,2013-10-08 07:08:00,
2013-10-08 02:13:00,54.0,50.2,30.05,ENE,65,0.0,0.0,87,0.00,,,0.00,meteohub,2013-10-08 07:13:00,
2013-10-08 02:19:00,54.0,50.2,30.05,ENE,65,0.0,0.0,87,0.00,,,0.00,meteohub,2013-10-08 07:19:00,
2013-10-08 02:24:00,53.8,50.0,30.05,ENE,65,0.0,0.0,87,0.00,,,0.00,meteohub,2013-10-08 07:24:00,
2013-10-08 02:29:00,53.6,49.8,30.05,ENE,65,0.0,0.0,87,0.00,,,0.00,meteohub,2013-10-08 07:29:00,
2013-10-08 02:35:00,53.4,49.6,30.05,ENE,65,0.0,0.0,87,0.00,,,0.00,meteohub,2013-10-08 07:35:00,
2013-10-08 02:40:00,53.4,50.0,30.05,ENE,65,0.0,0.0,88,0.00,,,0.00,meteohub,2013-10-08 07:40:00,
2013-10-08 02:45:00,53.4,50.0,30.05,ENE,65,0.0,0.0,88,0.00,,,0.00,meteohub,2013-10-08 07:45:00,
2013-10-08 02:50:00,53.2,49.5,30.05,ENE,65,0.0,0.0,87,0.00,,,0.00,meteohub,2013-10-08 07:50:00,
2013-10-08 02:55:00,53.2,49.5,30.05,ENE,65,0.0,0.0,87,0.00,,,0.00,meteohub,2013-10-08 07:55:00,
2013-10-08 03:01:00,53.2,49.5,30.05,ENE,65,0.0,0.0,87,0.00,,,0.00,meteohub,2013-10-08 08:01:00,
2013-10-08 03:06:00,53.1,49.6,30.05,ENE,65,0.0,0.0,88,0.00,,,0.00,meteohub,2013-10-08 08:06:00,
2013-10-08 03:11:00,53.1,49.6,30.05,ENE,65,0.0,0.0,88,0.00,,,0.00,meteohub,2013-10-08 08:11:00,
2013-10-08 03:16:00,53.1,49.6,30.05,ENE,65,0.0,0.0,88,0.00,,,0.00,meteohub,2013-10-08 08:16:00,
2013-10-08 03:21:00,52.9,49.5,30.05,ENE,65,0.0,0.0,88,0.00,,,0.00,meteohub,2013-10-08 08:21:00,
2013-10-08 03:27:00,52.9,49.5,30.05,ENE,65,0.0,0.0,88,0.00,,,0.00,meteohub,2013-10-08 08:27:00,
2013-10-08 03:32:00,52.9,49.5,30.05,ENE,65,0.0,0.0,88,0.00,,,0.00,meteohub,2013-10-08 08:32:00,
2013-10-08 03:37:00,52.9,49.5,30.04,ENE,65,0.0,0.0,88,0.00,,,0.00,meteohub,2013-10-08 08:37:00,
2013-10-08 03:42:00,52.7,49.3,30.05,ENE,65,0.0,0.0,88,0.00,,,0.00,meteohub,2013-10-08 08:42:00,
2013-10-08 03:47:00,52.5,49.1,30.04,ENE,65,0.0,0.0,88,0.00,,,0.00,meteohub,2013-10-08 08:47:00,
2013-10-08 03:52:00,52.5,49.1,30.04,ENE,65,0.0,0.0,88,0.00,,,0.00,meteohub,2013-10-08 08:52:00,
2013-10-08 03:57:00,52.5,49.1,30.04,ENE,65,0.0,0.0,88,0.00,,,0.00,meteohub,2013-10-08 08:57:00,
2013-10-08 04:02:00,52.3,48.9,30.04,ENE,65,0.0,0.0,88,0.00,,,0.00,meteohub,2013-10-08 09:02:00,
2013-10-08 04:07:00,52.3,48.9,30.05,ENE,65,0.0,1.0,88,0.00,,,0.00,meteohub,2013-10-08 09:07:00,
2013-10-08 04:12:00,52.3,48.9,30.04,ENE,65,0.0,1.0,88,0.00,,,0.00,meteohub,2013-10-08 09:12:00,
2013-10-08 04:17:00,52.3,48.9,30.04,ENE,65,0.0,0.0,88,0.00,,,0.00,meteohub,2013-10-08 09:17:00,
2013-10-08 04:22:00,52.2,49.1,30.04,ENE,65,0.0,0.0,89,0.00,,,0.00,meteohub,2013-10-08 09:22:00,
2013-10-08 04:27:00,52.2,49.1,30.04,ENE,65,0.0,0.0,89,0.00,,,0.00,meteohub,2013-10-08 09:27:00,
2013-10-08 04:33:00,52.2,49.1,30.04,ENE,65,0.0,0.0,89,0.00,,,0.00,meteohub,2013-10-08 09:33:00,
2013-10-08 04:38:00,52.0,48.9,30.04,ENE,65,0.0,0.0,89,0.00,,,0.00,meteohub,2013-10-08 09:38:00,
2013-10-08 04:43:00,52.0,48.9,30.04,ENE,65,0.0,0.0,89,0.00,,,0.00,meteohub,2013-10-08 09:43:00,
2013-10-08 04:48:00,52.0,48.9,30.04,ENE,65,0.0,0.0,89,0.00,,,0.00,meteohub,2013-10-08 09:48:00,
2013-10-08 04:54:00,52.0,48.9,30.04,ENE,65,0.0,0.0,89,0.00,,,0.00,meteohub,2013-10-08 09:54:00,
2013-10-08 04:59:00,52.0,48.9,30.04,ENE,65,0.0,0.0,89,0.00,,,0.00,meteohub,2013-10-08 09:59:00,
2013-10-08 05:04:00,51.8,48.7,30.04,ENE,65,0.0,0.0,89,0.00,,,0.00,meteohub,2013-10-08 10:04:00,
2013-10-08 05:10:00,51.8,48.7,30.04,ENE,65,0.0,0.0,89,0.00,,,0.00,meteohub,2013-10-08 10:10:00,
2013-10-08 05:15:00,51.6,48.2,30.04,ENE,65,0.0,0.0,88,0.00,,,0.00,meteohub,2013-10-08 10:15:00,
2013-10-08 05:20:00,51.6,48.2,30.04,ENE,65,0.0,0.0,88,0.00,,,0.00,meteohub,2013-10-08 10:20:00,
2013-10-08 05:26:00,51.6,48.2,30.04,ENE,65,0.0,0.0,88,0.00,,,0.00,meteohub,2013-10-08 10:26:00,
2013-10-08 05:31:00,51.6,48.2,30.05,ENE,65,0.0,0.0,88,0.00,,,0.00,meteohub,2013-10-08 10:31:00,
2013-10-08 05:36:00,51.4,48.0,30.05,ENE,65,0.0,0.0,88,0.00,,,0.00,meteohub,2013-10-08 10:36:00,
2013-10-08 05:42:00,51.4,48.0,30.05,ENE,65,0.0,0.0,88,0.00,,,0.00,meteohub,2013-10-08 10:42:00,
2013-10-08 05:47:00,51.4,47.7,30.05,ENE,65,0.0,0.0,87,0.00,,,0.00,meteohub,2013-10-08 10:47:00,
2013-10-08 05:52:00,51.3,47.8,30.05,ENE,65,0.0,0.0,88,0.00,,,0.00,meteohub,2013-10-08 10:52:00,
2013-10-08 05:58:00,51.3,47.8,30.05,ENE,65,0.0,0.0,88,0.00,,,0.00,meteohub,2013-10-08 10:58:00,
2013-10-08 06:03:00,51.1,47.7,30.05,ENE,65,0.0,0.0,88,0.00,,,0.00,meteohub,2013-10-08 11:03:00,
2013-10-08 06:08:00,51.1,47.7,30.05,ENE,65,0.0,0.0,88,0.00,,,0.00,meteohub,2013-10-08 11:08:00,
2013-10-08 06:14:00,50.9,47.5,30.05,ENE,65,0.0,0.0,88,0.00,,,0.00,meteohub,2013-10-08 11:14:00,
2013-10-08 06:19:00,50.7,47.3,30.05,ENE,65,0.0,0.0,88,0.00,,,0.00,meteohub,2013-10-08 11:19:00,
2013-10-08 06:24:00,50.7,47.3,30.06,ENE,65,0.0,0.0,88,0.00,,,0.00,meteohub,2013-10-08 11:24:00,
2013-10-08 06:30:00,50.7,47.7,30.06,ENE,65,0.0,0.0,89,0.00,,,0.00,meteohub,2013-10-08 11:30:00,
2013-10-08 06:35:00,50.5,47.5,30.06,ENE,65,0.0,0.0,89,0.00,,,0.00,meteohub,2013-10-08 11:35:00,
2013-10-08 06:40:00,50.5,47.5,30.06,ENE,65,0.0,0.0,89,0.00,,,0.00,meteohub,2013-10-08 11:40:00,
2013-10-08 06:46:00,50.5,47.5,30.06,ENE,65,0.0,0.0,89,0.00,,,0.00,meteohub,2013-10-08 11:46:00,
2013-10-08 06:51:00,50.4,47.5,30.06,ENE,65,0.0,0.0,90,0.00,,,0.00,meteohub,2013-10-08 11:51:00,
2013-10-08 06:56:00,50.4,47.5,30.06,ENE,65,0.0,0.0,90,0.00,,,0.00,meteohub,2013-10-08 11:56:00,
2013-10-08 07:02:00,50.4,47.5,30.06,ENE,65,0.0,0.0,90,0.00,,,0.00,meteohub,2013-10-08 12:02:00,
2013-10-08 07:07:00,50.2,47.3,30.06,ENE,65,0.0,0.0,90,0.00,,,0.00,meteohub,2013-10-08 12:07:00,
2013-10-08 07:12:00,50.2,47.3,30.06,ENE,65,0.0,0.0,90,0.00,,,0.00,meteohub,2013-10-08 12:12:00,
2013-10-08 07:17:00,50.2,47.3,30.06,ENE,65,0.0,0.0,90,0.00,,,0.00,meteohub,2013-10-08 12:17:00,
2013-10-08 07:22:00,50.2,47.3,30.06,ENE,65,0.0,0.0,90,0.00,,,0.00,meteohub,2013-10-08 12:22:00,
2013-10-08 07:27:00,50.0,47.5,30.06,ENE,65,0.0,0.0,91,0.00,,,0.00,meteohub,2013-10-08 12:27:00,
2013-10-08 07:32:00,49.8,46.9,30.06,ENE,66,0.0,0.0,90,0.00,,,0.00,meteohub,2013-10-08 12:32:00,
2013-10-08 07:37:00,49.8,47.3,30.06,ENE,65,0.0,0.0,91,0.00,,,0.00,meteohub,2013-10-08 12:37:00,
2013-10-08 07:42:00,49.8,47.3,30.06,ENE,65,0.0,0.0,91,0.00,,,0.00,meteohub,2013-10-08 12:42:00,
2013-10-08 07:47:00,49.8,47.3,30.06,ENE,65,0.0,0.0,91,0.00,,,0.00,meteohub,2013-10-08 12:47:00,
2013-10-08 07:52:00,49.8,47.3,30.06,ENE,66,0.0,0.0,91,0.00,,,0.00,meteohub,2013-10-08 12:52:00,
2013-10-08 07:57:00,49.6,47.1,30.06,ENE,65,0.0,0.0,91,0.00,,,0.00,meteohub,2013-10-08 12:57:00,
2013-10-08 08:02:00,49.6,47.1,30.07,ENE,65,0.0,0.0,91,0.00,,,0.00,meteohub,2013-10-08 13:02:00,
2013-10-08 08:07:00,49.6,47.1,30.07,ENE,66,0.0,0.0,91,0.00,,,0.00,meteohub,2013-10-08 13:07:00,
2013-10-08 08:12:00,49.6,47.1,30.07,ENE,65,0.0,0.0,91,0.00,,,0.00,meteohub,2013-10-08 13:12:00,
2013-10-08 08:17:00,49.6,47.1,30.07,ENE,65,0.0,0.0,91,0.00,,,0.00,meteohub,2013-10-08 13:17:00,
2013-10-08 08:22:00,49.5,46.9,30.07,ENE,65,0.0,0.0,91,0.00,,,0.00,meteohub,2013-10-08 13:22:00,
2013-10-08 08:27:00,49.5,46.9,30.07,ENE,65,0.0,0.0,91,0.00,,,0.00,meteohub,2013-10-08 13:27:00,
2013-10-08 08:32:00,50.2,48.2,30.07,ENE,66,0.0,0.0,93,0.00,,,0.00,meteohub,2013-10-08 13:32:00,
2013-10-08 08:37:00,51.8,49.8,30.07,ENE,66,0.0,0.0,93,0.00,,,0.00,meteohub,2013-10-08 13:37:00,
2013-10-08 08:42:00,51.8,49.6,30.08,ENE,65,0.0,0.0,92,0.00,,,0.00,meteohub,2013-10-08 13:42:00,
2013-10-08 08:47:00,51.6,49.5,30.08,ENE,66,0.0,0.0,92,0.00,,,0.00,meteohub,2013-10-08 13:47:00,
2013-10-08 08:52:00,51.4,49.3,30.08,ENE,65,0.0,0.0,92,0.00,,,0.00,meteohub,2013-10-08 13:52:00,
2013-10-08 08:57:00,51.6,49.6,30.08,SE,136,0.0,3.0,93,0.00,,,0.00,meteohub,2013-10-08 13:57:00,
2013-10-08 09:03:00,52.0,50.0,30.08,SE,126,0.0,3.0,93,0.00,,,0.00,meteohub,2013-10-08 14:03:00,
2013-10-08 09:08:00,52.3,50.7,30.08,SE,128,0.0,3.0,94,0.00,,,0.00,meteohub,2013-10-08 14:08:00,
2013-10-08 09:13:00,52.5,50.9,30.08,South,180,2.0,4.0,94,0.00,,,0.00,meteohub,2013-10-08 14:13:00,
2013-10-08 09:19:00,53.1,51.4,30.08,SE,143,1.0,4.0,94,0.00,,,0.00,meteohub,2013-10-08 14:19:00,
2013-10-08 09:24:00,53.4,51.8,30.08,SSE,150,0.0,4.0,94,0.00,,,0.00,meteohub,2013-10-08 14:24:00,
2013-10-08 09:29:00,54.0,52.3,30.08,South,171,2.0,6.0,94,0.00,,,0.00,meteohub,2013-10-08 14:29:00,
2013-10-08 09:35:00,54.5,52.9,30.09,SE,136,0.0,6.0,94,0.00,,,0.00,meteohub,2013-10-08 14:35:00,
2013-10-08 09:40:00,55.0,53.1,30.08,South,184,2.0,6.0,93,0.00,,,0.00,meteohub,2013-10-08 14:40:00,
2013-10-08 09:45:00,56.3,53.1,30.08,SSE,162,2.0,5.0,89,0.00,,,0.00,meteohub,2013-10-08 14:45:00,
2013-10-08 09:50:00,57.7,52.9,30.09,South,190,3.0,5.0,84,0.00,,,0.00,meteohub,2013-10-08 14:50:00,
2013-10-08 09:56:00,58.8,52.7,30.09,South,183,3.0,5.0,80,0.00,,,0.00,meteohub,2013-10-08 14:56:00,
2013-10-08 10:01:00,60.1,53.2,30.09,SSW,206,6.0,8.0,78,0.00,,,0.00,meteohub,2013-10-08 15:01:00,
2013-10-08 10:06:00,61.0,53.1,30.09,South,188,3.0,8.0,75,0.00,,,0.00,meteohub,2013-10-08 15:06:00,
2013-10-08 10:12:00,63.5,53.6,30.09,SE,134,0.0,8.0,70,-99.99,,,0.00,meteohub,2013-10-08 15:12:00,
2013-10-08 10:17:00,64.8,53.6,30.09,SSW,205,4.0,10.0,67,0.00,,,0.00,meteohub,2013-10-08 15:17:00,
2013-10-08 10:22:00,65.1,53.4,30.09,SE,134,0.0,10.0,66,0.00,,,0.00,meteohub,2013-10-08 15:22:00,
2013-10-08 10:28:00,65.5,53.4,30.09,South,186,3.0,6.0,65,0.00,,,0.00,meteohub,2013-10-08 15:28:00,
2013-10-08 10:33:00,66.0,53.4,30.09,SSW,202,2.0,6.0,64,0.00,,,0.00,meteohub,2013-10-08 15:33:00,
2013-10-08 10:38:00,66.6,53.6,30.09,South,188,4.0,6.0,63,0.00,,,0.00,meteohub,2013-10-08 15:38:00,
2013-10-08 10:44:00,66.9,53.4,30.09,SSE,154,3.0,8.0,62,0.00,,,0.00,meteohub,2013-10-08 15:44:00,
2013-10-08 10:49:00,67.6,54.1,30.09,SSE,154,2.0,8.0,62,0.00,,,0.00,meteohub,2013-10-08 15:49:00,
2013-10-08 10:55:00,68.0,53.6,30.09,SSW,200,3.0,8.0,60,0.00,,,0.00,meteohub,2013-10-08 15:55:00,
2013-10-08 11:00:00,68.5,53.2,30.09,SSE,166,2.0,7.0,58,0.00,,,0.00,meteohub,2013-10-08 16:00:00,
2013-10-08 11:05:00,69.1,54.7,30.09,ESE,116,3.0,7.0,60,0.00,,,0.00,meteohub,2013-10-08 16:05:00,
2013-10-08 11:11:00,70.2,54.7,30.08,SSE,167,3.0,7.0,58,0.00,,,0.00,meteohub,2013-10-08 16:11:00,
2013-10-08 11:16:00,70.5,54.1,30.08,SSW,192,0.0,8.0,56,0.00,,,0.00,meteohub,2013-10-08 16:16:00,
2013-10-08 11:21:00,71.1,54.5,30.08,South,181,4.0,8.0,56,0.00,,,0.00,meteohub,2013-10-08 16:21:00,
2013-10-08 11:26:00,71.1,55.6,30.07,South,172,0.0,8.0,58,0.00,,,0.00,meteohub,2013-10-08 16:26:00,
2013-10-08 11:32:00,72.0,54.9,30.07,SSE,148,3.0,10.0,55,0.00,,,0.00,meteohub,2013-10-08 16:32:00,
2013-10-08 11:37:00,72.1,54.1,30.07,ESE,109,3.0,10.0,53,0.00,,,0.00,meteohub,2013-10-08 16:37:00,
2013-10-08 11:42:00,72.5,54.3,30.07,South,177,2.0,10.0,53,0.00,,,0.00,meteohub,2013-10-08 16:42:00,
2013-10-08 11:47:00,72.9,54.7,30.07,SSE,152,1.0,9.0,53,0.00,,,0.00,meteohub,2013-10-08 16:47:00,
2013-10-08 11:52:00,73.6,55.9,30.07,SSW,193,1.0,9.0,54,0.00,,,0.00,meteohub,2013-10-08 16:52:00,
2013-10-08 11:57:00,73.0,54.3,30.07,South,171,5.0,8.0,52,0.00,,,0.00,meteohub,2013-10-08 16:57:00,
2013-10-08 12:02:00,73.8,56.7,30.07,SE,140,1.0,8.0,55,0.00,,,0.00,meteohub,2013-10-08 17:02:00,
2013-10-08 12:07:00,73.9,54.1,30.06,SSW,198,3.0,8.0,50,0.00,,,0.00,meteohub,2013-10-08 17:07:00,
2013-10-08 12:12:00,74.1,55.9,30.06,SSW,195,3.0,8.0,53,0.00,,,0.00,meteohub,2013-10-08 17:12:00,
2013-10-08 12:17:00,74.7,56.5,30.06,South,186,3.0,7.0,53,0.00,,,0.00,meteohub,2013-10-08 17:17:00,
2013-10-08 12:22:00,75.0,54.5,30.06,SE,144,1.0,7.0,49,0.00,,,0.00,meteohub,2013-10-08 17:22:00,
2013-10-08 12:27:00,75.4,55.4,30.06,SE,124,0.0,7.0,50,0.00,,,0.00,meteohub,2013-10-08 17:27:00,
2013-10-08 12:32:00,75.0,53.4,30.06,SSE,165,0.0,8.0,47,0.00,,,0.00,meteohub,2013-10-08 17:32:00,
2013-10-08 12:37:00,75.7,55.8,30.05,East,90,2.0,8.0,50,0.00,,,0.00,meteohub,2013-10-08 17:37:00,
2013-10-08 12:42:00,76.3,55.2,30.05,SSW,203,1.0,8.0,48,0.00,,,0.00,meteohub,2013-10-08 17:42:00,
2013-10-08 12:47:00,76.5,54.1,30.05,SE,128,3.0,8.0,46,0.00,,,0.00,meteohub,2013-10-08 17:47:00,
2013-10-08 12:52:00,76.1,55.0,30.04,SE,129,2.0,8.0,48,0.00,,,0.00,meteohub,2013-10-08 17:52:00,
2013-10-08 12:57:00,76.8,54.5,30.04,SE,133,4.0,8.0,46,0.00,,,0.00,meteohub,2013-10-08 17:57:00,
2013-10-08 13:02:00,77.4,55.0,30.04,SE,130,1.0,8.0,46,0.00,,,0.00,meteohub,2013-10-08 18:02:00,
2013-10-08 13:07:00,77.2,54.9,30.04,South,182,1.0,8.0,46,0.00,,,0.00,meteohub,2013-10-08 18:07:00,
2013-10-08 13:13:00,77.2,52.3,30.04,SE,143,7.0,9.0,42,0.00,,,0.00,meteohub,2013-10-08 18:13:00,
2013-10-08 13:18:00,77.2,52.9,30.03,ESE,106,1.0,9.0,43,0.00,,,0.00,meteohub,2013-10-08 18:18:00,
2013-10-08 13:23:00,77.2,52.9,30.03,SE,146,5.0,9.0,43,0.00,,,0.00,meteohub,2013-10-08 18:23:00,
2013-10-08 13:29:00,77.2,52.9,30.03,SSE,158,0.0,9.0,43,0.00,,,0.00,meteohub,2013-10-08 18:29:00,
2013-10-08 13:34:00,77.4,52.5,30.02,SE,146,3.0,8.0,42,0.00,,,0.00,meteohub,2013-10-08 18:34:00,
2013-10-08 13:40:00,77.5,52.7,30.02,ENE,57,2.0,8.0,42,0.00,,,0.00,meteohub,2013-10-08 18:40:00,
2013-10-08 13:45:00,77.7,52.9,30.01,South,171,1.0,8.0,42,0.00,,,0.00,meteohub,2013-10-08 18:45:00,
2013-10-08 13:50:00,78.4,52.7,30.01,SSE,159,3.0,5.0,41,0.00,,,0.00,meteohub,2013-10-08 18:50:00,
2013-10-08 13:56:00,78.3,52.0,30.01,ENE,71,3.0,5.0,40,0.00,,,0.00,meteohub,2013-10-08 18:56:00,
2013-10-08 14:01:00,78.4,53.4,30.01,SSE,164,2.0,5.0,42,0.00,,,0.00,meteohub,2013-10-08 19:01:00,
2013-10-08 14:06:00,78.6,52.3,30.01,South,188,3.0,5.0,40,0.00,,,0.00,meteohub,2013-10-08 19:06:00,
2013-10-08 14:12:00,78.8,55.0,30.00,South,177,4.0,7.0,44,0.00,,,0.00,meteohub,2013-10-08 19:12:00,
2013-10-08 14:17:00,78.8,53.1,30.00,South,169,0.0,7.0,41,0.00,,,0.00,meteohub,2013-10-08 19:17:00,
2013-10-08 14:22:00,78.3,52.7,30.00,SE,136,3.0,7.0,41,0.00,,,0.00,meteohub,2013-10-08 19:22:00,
2013-10-08 14:27:00,78.6,50.9,30.00,ENE,75,1.0,7.0,38,0.00,,,0.00,meteohub,2013-10-08 19:27:00,
2013-10-08 14:32:00,79.0,54.0,30.00,SSW,207,1.0,7.0,42,0.00,,,0.00,meteohub,2013-10-08 19:32:00,
2013-10-08 14:37:00,79.5,51.6,29.99,SSE,148,5.0,7.0,38,0.00,,,0.00,meteohub,2013-10-08 19:37:00,
2013-10-08 14:43:00,79.0,52.0,29.99,SSE,157,0.0,7.0,39,0.00,,,0.00,meteohub,2013-10-08 19:43:00,
2013-10-08 14:48:00,78.3,51.3,29.99,SSE,158,6.0,6.0,39,0.00,,,0.00,meteohub,2013-10-08 19:48:00,
2013-10-08 14:53:00,79.2,53.4,29.99,SSW,196,0.0,6.0,41,0.00,,,0.00,meteohub,2013-10-08 19:53:00,
2013-10-08 14:59:00,79.5,51.6,29.99,SSE,158,3.0,7.0,38,0.00,,,0.00,meteohub,2013-10-08 19:59:00,
2013-10-08 15:04:00,79.3,51.4,29.99,SSE,161,3.0,7.0,38,0.00,,,0.00,meteohub,2013-10-08 20:04:00,
2013-10-08 15:09:00,79.3,50.0,29.98,ENE,59,0.0,7.0,36,0.00,,,0.00,meteohub,2013-10-08 20:09:00,
2013-10-08 15:15:00,79.3,50.7,29.98,ENE,59,0.0,8.0,37,0.00,,,0.00,meteohub,2013-10-08 20:15:00,
2013-10-08 15:20:00,79.5,50.9,29.98,SE,138,6.0,8.0,37,0.00,,,0.00,meteohub,2013-10-08 20:20:00,
2013-10-08 15:25:00,79.3,50.7,29.98,South,182,3.0,8.0,37,0.00,,,0.00,meteohub,2013-10-08 20:25:00,
2013-10-08 15:31:00,79.5,50.2,29.98,SE,139,2.0,9.0,36,0.00,,,0.00,meteohub,2013-10-08 20:31:00,
2013-10-08 15:36:00,79.3,50.0,29.98,SE,136,3.0,9.0,36,0.00,,,0.00,meteohub,2013-10-08 20:36:00,
2013-10-08 15:41:00,79.9,52.0,29.98,South,187,5.0,9.0,38,0.00,,,0.00,meteohub,2013-10-08 20:41:00,
2013-10-08 15:47:00,79.9,52.0,29.98,SSE,147,4.0,9.0,38,0.00,,,0.00,meteohub,2013-10-08 20:47:00,
2013-10-08 15:52:00,79.9,52.7,29.98,East,99,0.0,9.0,39,0.00,,,0.00,meteohub,2013-10-08 20:52:00,
2013-10-08 15:57:00,79.7,52.5,29.98,SSE,155,3.0,9.0,39,0.00,,,0.00,meteohub,2013-10-08 20:57:00,
2013-10-08 16:02:00,80.1,52.2,29.98,ESE,119,1.0,9.0,38,0.00,,,0.00,meteohub,2013-10-08 21:02:00,
2013-10-08 16:07:00,79.9,51.3,29.97,SE,142,0.0,9.0,37,0.00,,,0.00,meteohub,2013-10-08 21:07:00,
2013-10-08 16:12:00,79.5,51.6,29.97,SSE,157,5.0,9.0,38,0.00,,,0.00,meteohub,2013-10-08 21:12:00,
2013-10-08 16:17:00,79.9,52.0,29.97,SE,138,1.0,9.0,38,0.00,,,0.00,meteohub,2013-10-08 21:17:00,
2013-10-08 16:22:00,80.1,52.2,29.97,SE,141,3.0,9.0,38,0.00,,,0.00,meteohub,2013-10-08 21:22:00,
2013-10-08 16:27:00,79.7,51.8,29.97,SE,124,3.0,9.0,38,0.00,,,0.00,meteohub,2013-10-08 21:27:00,
2013-10-08 16:32:00,79.9,52.0,29.97,SE,142,3.0,8.0,38,0.00,,,0.00,meteohub,2013-10-08 21:32:00,
2013-10-08 16:37:00,79.5,51.6,29.97,SE,128,1.0,8.0,38,0.00,,,0.00,meteohub,2013-10-08 21:37:00,
2013-10-08 16:42:00,79.9,51.3,29.97,SSE,157,1.0,8.0,37,0.00,,,0.00,meteohub,2013-10-08 21:42:00,
2013-10-08 16:47:00,79.9,51.3,29.97,South,186,4.0,7.0,37,0.00,,,0.00,meteohub,2013-10-08 21:47:00,
2013-10-08 16:52:00,79.5,51.6,29.97,ESE,116,5.0,7.0,38,0.00,,,0.00,meteohub,2013-10-08 21:52:00,
2013-10-08 16:57:00,79.3,51.4,29.97,SSE,165,2.0,7.0,38,0.00,,,0.00,meteohub,2013-10-08 21:57:00,
2013-10-08 17:02:00,79.2,50.7,29.96,SE,126,2.0,8.0,37,0.00,,,0.00,meteohub,2013-10-08 22:02:00,
2013-10-08 17:07:00,79.2,51.4,29.96,ESE,110,0.0,8.0,38,0.00,,,0.00,meteohub,2013-10-08 22:07:00,
2013-10-08 17:12:00,79.2,49.8,29.96,SE,127,5.0,8.0,36,0.00,,,0.00,meteohub,2013-10-08 22:12:00,
2013-10-08 17:17:00,79.0,51.3,29.96,South,184,0.0,7.0,38,0.00,,,0.00,meteohub,2013-10-08 22:17:00,
2013-10-08 17:22:00,79.2,50.7,29.96,ESE,113,4.0,7.0,37,0.00,,,0.00,meteohub,2013-10-08 22:22:00,
2013-10-08 17:28:00,79.0,51.3,29.96,SE,140,2.0,8.0,38,0.00,,,0.00,meteohub,2013-10-08 22:28:00,
2013-10-08 17:33:00,79.0,51.3,29.96,SE,137,1.0,8.0,38,0.00,,,0.00,meteohub,2013-10-08 22:33:00,
2013-10-08 17:39:00,78.8,50.4,29.96,SSE,158,2.0,8.0,37,0.00,,,0.00,meteohub,2013-10-08 22:39:00,
2013-10-08 17:44:00,78.6,50.2,29.96,ESE,112,0.0,7.0,37,0.00,,,0.00,meteohub,2013-10-08 22:44:00,
2013-10-08 17:49:00,78.4,51.4,29.96,SE,126,0.0,7.0,39,0.00,,,0.00,meteohub,2013-10-08 22:49:00,
2013-10-08 17:55:00,78.3,50.5,29.96,SSE,159,4.0,7.0,38,0.00,,,0.00,meteohub,2013-10-08 22:55:00,
2013-10-08 18:00:00,78.3,51.3,29.96,ESE,107,1.0,7.0,39,0.00,,,0.00,meteohub,2013-10-08 23:00:00,
2013-10-08 18:05:00,78.1,51.1,29.96,SSE,165,1.0,7.0,39,0.00,,,0.00,meteohub,2013-10-08 23:05:00,
2013-10-08 18:11:00,77.7,50.7,29.96,SE,132,0.0,7.0,39,0.00,,,0.00,meteohub,2013-10-08 23:11:00,
2013-10-08 18:16:00,77.5,51.3,29.96,SSE,161,0.0,8.0,40,0.00,,,0.00,meteohub,2013-10-08 23:16:00,
2013-10-08 18:25:00,77.2,51.1,29.96,ESE,120,0.0,8.0,40,0.00,,,0.00,meteohub,2013-10-08 23:25:00,
2013-10-08 18:30:00,77.0,51.4,29.96,SE,131,0.0,8.0,41,0.00,,,0.00,meteohub,2013-10-08 23:30:00,
2013-10-08 18:35:00,76.8,51.3,29.96,South,173,3.0,8.0,41,0.00,,,0.00,meteohub,2013-10-08 23:35:00,
2013-10-08 18:41:00,76.6,51.8,29.96,SSE,157,1.0,8.0,42,0.00,,,0.00,meteohub,2013-10-08 23:41:00,
2013-10-08 18:47:00,76.3,52.2,29.96,SSE,149,2.0,5.0,43,0.00,,,0.00,meteohub,2013-10-08 23:47:00,
2013-10-08 18:52:00,75.7,53.4,29.96,SSE,157,2.0,5.0,46,0.00,,,0.00,meteohub,2013-10-08 23:52:00,
2013-10-08 18:57:00,75.4,53.2,29.96,SSE,148,1.0,5.0,46,0.00,,,0.00,meteohub,2013-10-08 23:57:00,
2013-10-08 19:02:00,74.7,53.1,29.96,ESE,117,0.0,5.0,47,0.00,,,0.00,meteohub,2013-10-09 00:02:00,
2013-10-08 19:07:00,73.8,52.9,29.96,SSE,148,1.0,5.0,48,0.00,,,0.00,meteohub,2013-10-09 00:07:00,
2013-10-08 19:12:00,73.0,53.2,29.96,SSE,148,0.0,5.0,50,0.00,,,0.00,meteohub,2013-10-09 00:12:00,
2013-10-08 19:17:00,72.3,53.2,29.96,SSE,148,0.0,4.0,51,0.00,,,0.00,meteohub,2013-10-09 00:17:00,
2013-10-08 19:22:00,72.1,53.6,29.96,SSE,148,1.0,4.0,52,0.00,,,0.00,meteohub,2013-10-09 00:22:00,
2013-10-08 19:28:00,72.0,54.0,29.96,ESE,111,0.0,2.0,53,0.00,,,0.00,meteohub,2013-10-09 00:28:00,
2013-10-08 19:33:00,72.0,54.3,29.96,ESE,108,1.0,2.0,54,0.00,,,0.00,meteohub,2013-10-09 00:33:00,
2013-10-08 19:38:00,72.0,54.3,29.96,ESE,113,0.0,2.0,54,0.00,,,0.00,meteohub,2013-10-09 00:38:00,
2013-10-08 19:44:00,72.1,54.1,29.96,ESE,119,7.0,7.0,53,0.00,,,0.00,meteohub,2013-10-09 00:44:00,
2013-10-08 19:49:00,72.0,54.9,29.96,East,84,0.0,7.0,55,0.00,,,0.00,meteohub,2013-10-09 00:49:00,
2013-10-08 19:54:00,71.8,55.2,29.96,ESE,107,3.0,7.0,56,0.00,,,0.00,meteohub,2013-10-09 00:54:00,
2013-10-08 19:59:00,71.4,55.4,29.96,ESE,115,1.0,7.0,57,0.00,,,0.00,meteohub,2013-10-09 00:59:00,
2013-10-08 20:05:00,70.9,55.4,29.97,SE,140,0.0,7.0,58,0.00,,,0.00,meteohub,2013-10-09 01:05:00,
2013-10-08 20:10:00,70.7,55.6,29.97,ESE,103,2.0,7.0,59,0.00,,,0.00,meteohub,2013-10-09 01:10:00,
2013-10-08 20:15:00,70.5,55.6,29.97,ESE,117,0.0,7.0,59,0.00,,,0.00,meteohub,2013-10-09 01:15:00,
2013-10-08 20:21:00,70.3,55.8,29.97,East,101,1.0,7.0,60,0.00,,,0.00,meteohub,2013-10-09 01:21:00,
2013-10-08 20:26:00,70.3,55.8,29.97,SE,127,1.0,7.0,60,0.00,,,0.00,meteohub,2013-10-09 01:26:00,
2013-10-08 20:31:00,70.5,55.6,29.97,South,175,1.0,7.0,59,0.00,,,0.00,meteohub,2013-10-09 01:31:00,
2013-10-08 20:36:00,70.5,55.9,29.97,ESE,116,1.0,7.0,60,0.00,,,0.00,meteohub,2013-10-09 01:36:00,
2013-10-08 20:42:00,70.2,56.1,29.97,ESE,119,0.0,10.0,61,0.00,,,0.00,meteohub,2013-10-09 01:42:00,
2013-10-08 20:47:00,69.6,55.9,29.97,SE,130,0.0,10.0,62,0.00,,,0.00,meteohub,2013-10-09 01:47:00,
2013-10-08 20:52:00,69.6,55.9,29.98,ESE,111,1.0,10.0,62,0.00,,,0.00,meteohub,2013-10-09 01:52:00,
2013-10-08 20:58:00,69.4,55.9,29.98,ESE,119,0.0,7.0,62,0.00,,,0.00,meteohub,2013-10-09 01:58:00,
2013-10-08 21:03:00,69.3,56.1,29.98,ESE,107,3.0,7.0,63,0.00,,,0.00,meteohub,2013-10-09 02:03:00,
2013-10-08 21:08:00,69.3,56.1,29.98,SE,140,4.0,7.0,63,0.00,,,0.00,meteohub,2013-10-09 02:08:00,
2013-10-08 21:13:00,69.4,56.3,29.98,SE,127,2.0,5.0,63,0.00,,,0.00,meteohub,2013-10-09 02:13:00,
2013-10-08 21:19:00,68.9,55.8,29.98,SE,127,2.0,5.0,63,0.00,,,0.00,meteohub,2013-10-09 02:19:00,
2013-10-08 21:24:00,68.9,55.8,29.98,SE,129,1.0,7.0,63,0.00,,,0.00,meteohub,2013-10-09 02:24:00,
2013-10-08 21:29:00,68.5,55.9,29.98,ESE,108,2.0,7.0,64,0.00,,,0.00,meteohub,2013-10-09 02:29:00,
2013-10-08 21:35:00,68.4,55.8,29.98,ENE,73,1.0,7.0,64,0.00,,,0.00,meteohub,2013-10-09 02:35:00,
2013-10-08 21:40:00,68.4,55.2,29.98,SE,138,1.0,5.0,63,0.00,,,0.00,meteohub,2013-10-09 02:40:00,
2013-10-08 21:45:00,68.4,55.2,29.98,SE,132,4.0,7.0,63,0.00,,,0.00,meteohub,2013-10-09 02:45:00,
2013-10-08 21:50:00,68.2,55.6,29.98,ESE,117,1.0,7.0,64,0.00,,,0.00,meteohub,2013-10-09 02:50:00,
2013-10-08 21:56:00,67.8,55.2,29.98,ESE,112,0.0,7.0,64,0.00,,,0.00,meteohub,2013-10-09 02:56:00,
2013-10-08 22:01:00,67.6,55.4,29.98,SE,128,1.0,7.0,65,0.00,,,0.00,meteohub,2013-10-09 03:01:00,
2013-10-08 22:06:00,68.0,55.8,29.98,ESE,113,3.0,7.0,65,0.00,,,0.00,meteohub,2013-10-09 03:06:00,
2013-10-08 22:12:00,68.2,55.6,29.98,SE,142,0.0,6.0,64,0.00,,,0.00,meteohub,2013-10-09 03:12:00,
2013-10-08 22:17:00,68.2,55.6,29.98,South,176,5.0,7.0,64,0.00,,,0.00,meteohub,2013-10-09 03:17:00,
2013-10-08 22:22:00,68.2,55.6,29.98,SE,127,1.0,8.0,64,0.00,,,0.00,meteohub,2013-10-09 03:22:00,
2013-10-08 22:27:00,68.0,55.4,29.98,ESE,121,7.0,9.0,64,0.00,,,0.00,meteohub,2013-10-09 03:27:00,
2013-10-08 22:32:00,67.8,55.2,29.98,SSE,163,3.0,9.0,64,0.00,,,0.00,meteohub,2013-10-09 03:32:00,
2013-10-08 22:37:00,67.8,55.2,29.97,ESE,113,0.0,9.0,64,0.00,,,0.00,meteohub,2013-10-09 03:37:00,
2013-10-08 22:42:00,67.8,55.2,29.98,SE,143,0.0,8.0,64,0.00,,,0.00,meteohub,2013-10-09 03:42:00,
2013-10-08 22:47:00,67.8,55.2,29.98,SE,144,0.0,7.0,64,0.00,,,0.00,meteohub,2013-10-09 03:47:00,
2013-10-08 22:52:00,67.6,55.0,29.98,ESE,122,2.0,7.0,64,0.00,,,0.00,meteohub,2013-10-09 03:52:00,
2013-10-08 22:57:00,67.5,54.9,29.98,SE,146,0.0,7.0,64,0.00,,,0.00,meteohub,2013-10-09 03:57:00,
2013-10-08 23:01:00,67.3,55.0,29.98,SE,146,0.0,7.0,65,0.00,,,0.00,meteohub,2013-10-09 04:01:00,
2013-10-08 23:02:00,67.3,55.0,29.98,SE,146,0.0,7.0,65,0.00,,,0.00,meteohub,2013-10-09 04:02:00,
2013-10-08 23:03:00,67.3,55.0,29.98,ESE,121,2.0,7.0,65,0.00,,,0.00,meteohub,2013-10-09 04:03:00,
2013-10-08 23:07:00,67.3,55.0,29.98,SSE,150,5.0,7.0,65,0.00,,,0.00,meteohub,2013-10-09 04:07:00,
2013-10-08 23:12:00,67.3,55.0,29.98,SE,144,0.0,7.0,65,0.00,,,0.00,meteohub,2013-10-09 04:12:00,
2013-10-08 23:13:00,67.3,55.0,29.98,East,101,1.0,8.0,65,0.00,,,0.00,meteohub,2013-10-09 04:13:00,
2013-10-08 23:19:00,67.3,55.0,29.98,SE,131,3.0,8.0,65,0.00,,,0.00,meteohub,2013-10-09 04:19:00,
2013-10-08 23:24:00,67.3,55.0,29.98,SE,128,1.0,8.0,65,0.00,,,0.00,meteohub,2013-10-09 04:24:00,
2013-10-08 23:29:00,67.1,54.9,29.98,SSE,158,2.0,8.0,65,0.00,,,0.00,meteohub,2013-10-09 04:29:00,
2013-10-08 23:35:00,66.9,54.9,29.98,SE,128,4.0,8.0,65,0.00,,,0.00,meteohub,2013-10-09 04:35:00,
2013-10-08 23:40:00,66.7,55.0,29.98,SE,134,2.0,8.0,66,0.00,,,0.00,meteohub,2013-10-09 04:40:00,
2013-10-08 23:45:00,66.6,54.9,29.97,ESE,121,3.0,8.0,66,0.00,,,0.00,meteohub,2013-10-09 04:45:00,
2013-10-08 23:50:00,66.4,54.7,29.97,SE,141,2.0,8.0,66,0.00,,,0.00,meteohub,2013-10-09 04:50:00,
2013-10-08 23:56:00,66.4,54.7,29.97,ESE,117,4.0,7.0,66,0.00,,,0.00,meteohub,2013-10-09 04:56:00,